FW7886 Weather Reports


Display with metric or nautical units.
time (UTC)temp
F
wind
direction
speed
MPH
gust
MPH
rain 1hr
in
rain 24hr
in
rain mn
in
humidity
%
barometer
mb
20260505003944 73 43 3.0 6.0 0.00 0.00 0.00 60 1012.1
20260505003441 73 43 2.0 6.0 0.00 0.00 0.00 60 1012.1
20260505002940 73 43 2.0 6.0 0.00 0.00 0.00 59 1012.3
20260505002441 74 43 2.0 6.0 0.00 0.00 0.00 57 1012.3
20260505001940 74 43 2.0 5.0 0.00 0.00 0.00 57 1012.5
20260505001440 74 43 2.0 6.0 0.00 0.00 0.00 57 1012.4
20260505001203 75 43 3.0 6.0 0.00 0.00 0.00 55 1012.5
20260505000442 75 43 3.0 6.0 0.00 0.00 0.00 54 1012.5
20260504235938 75 43 3.0 7.0 0.00 0.00 0.00 53 1012.8
20260504235702 75 43 3.0 7.0 0.00 0.00 0.00 52 1012.8
20260504234938 76 43 3.0 7.0 0.00 0.00 0.00 52 1012.8
20260504234440 75 43 3.0 8.0 0.00 0.00 0.00 52 1012.9
20260504233939 75 43 4.0 11.0 0.00 0.00 0.00 52 1012.8
20260504233439 76 43 3.0 11.0 0.00 0.00 0.00 53 1012.9
20260504232933 76 43 3.0 6.0 0.00 0.00 0.00 53 1012.9
20260504232427 76 43 3.0 9.0 0.00 0.00 0.00 52 1012.9
20260504231921 76 43 3.0 9.0 0.00 0.00 0.00 53 1013.0
20260504231414 77 104 4.0 9.0 0.00 0.00 0.00 51 1013.0
20260504230909 77 235 4.0 10.0 0.00 0.00 0.00 51 1013.0
20260504230402 77 271 4.0 10.0 0.00 0.00 0.00 51 1013.0
20260504225857 77 44 4.0 9.0 0.00 0.00 0.00 54 1013.0
20260504225608 78 47 4.0 9.0 0.00 0.00 0.00 50 1013.0
20260504224844 78 43 4.0 9.0 0.00 0.00 0.00 49 1013.0
20260504224339 78 43 3.0 8.0 0.00 0.00 0.00 49 1013.1
20260504223834 78 43 4.0 7.0 0.00 0.00 0.00 50 1013.2
20260504223327 78 43 4.0 9.0 0.00 0.00 0.00 48 1013.2
20260504223047 78 45 4.0 9.0 0.00 0.00 0.00 50 1013.2
20260504222537 78 44 4.0 10.0 0.00 0.00 0.00 50 1013.1
20260504222259 78 263 3.0 10.0 0.00 0.00 0.00 49 1013.2
20260504221303 78 244 4.0 10.0 0.00 0.00 0.00 48 1013.4
20260504220757 78 246 4.0 10.0 0.00 0.00 0.00 48 1013.3
20260504220251 78 47 4.0 7.0 0.00 0.00 0.00 47 1013.5
20260504215745 78 48 4.0 7.0 0.00 0.00 0.00 48 1013.5
20260504215239 78 48 4.0 7.0 0.00 0.00 0.00 48 1013.5
20260504214734 78 255 4.0 9.0 0.00 0.00 0.00 49 1013.6
20260504214227 78 286 4.0 11.0 0.00 0.00 0.00 48 1013.6
20260504213943 78 39 4.0 11.0 0.00 0.00 0.00 50 1013.6
20260504213215 78 45 4.0 8.0 0.00 0.00 0.00 50 1013.7
20260504212708 78 45 4.0 9.0 0.00 0.00 0.00 48 1013.7
20260504212203 78 48 4.0 9.0 0.00 0.00 0.00 49 1013.7
20260504211656 78 42 4.0 9.0 0.00 0.00 0.00 50 1013.7
20260504211151 78 42 4.0 11.0 0.00 0.00 0.00 50 1013.7
20260504210644 78 42 4.0 11.0 0.00 0.00 0.00 49 1013.8
20260504210145 78 313 4.0 10.0 0.00 0.00 0.00 49 1013.8
20260504205645 78 42 3.0 9.0 0.00 0.00 0.00 49 1013.9
20260504205148 78 42 4.0 9.0 0.00 0.00 0.00 49 1014.2
20260504204644 78 135 4.0 11.0 0.00 0.00 0.00 50 1014.2
20260504204407 78 287 5.0 11.0 0.00 0.00 0.00 51 1014.2
20260504203904 78 40 5.0 9.0 0.00 0.00 0.00 50 1014.1
20260504203144 78 240 4.0 9.0 0.00 0.00 0.00 50 1014.4
20260504202643 78 47 4.0 8.0 0.00 0.00 0.00 48 1014.6
20260504202143 78 48 4.0 8.0 0.00 0.00 0.00 52 1014.6
20260504201642 78 43 4.0 9.0 0.00 0.00 0.00 49 1014.6
20260504201142 78 44 5.0 9.0 0.00 0.00 0.00 49 1014.7
20260504200642 78 44 5.0 9.0 0.00 0.00 0.00 48 1014.7
20260504200633 78 44 4.0 9.0 0.00 0.00 0.00 49 1014.8
20260504195904 78 44 4.0 9.0 0.00 0.00 0.00 51 1014.8
20260504195144 78 45 4.0 9.0 0.00 0.00 0.00 50 1014.9
20260504194905 78 45 4.0 9.0 0.00 0.00 0.00 51 1015.2
20260504194406 77 45 4.0 9.0 0.00 0.00 0.00 50 1015.2
20260504193636 77 261 5.0 11.0 0.00 0.00 0.00 51 1015.3
20260504193131 77 270 6.0 11.0 0.00 0.00 0.00 51 1015.4
20260504192625 77 262 5.0 12.0 0.00 0.00 0.00 50 1015.4
20260504192125 77 250 5.0 12.0 0.00 0.00 0.00 53 1015.6
20260504191625 77 43 4.0 10.0 0.00 0.00 0.00 51 1015.5
20260504191125 77 11 4.0 11.0 0.00 0.00 0.00 50 1015.6
20260504190622 77 281 4.0 11.0 0.00 0.00 0.00 48 1015.5
20260504190122 77 272 4.0 11.0 0.00 0.00 0.00 48 1015.5
20260504185622 77 256 4.0 11.0 0.00 0.00 0.00 50 1015.5
20260504185124 78 44 4.0 10.0 0.00 0.00 0.00 49 1015.7
20260504184622 78 44 3.0 9.0 0.00 0.00 0.00 49 1015.7
20260504184120 78 40 3.0 7.0 0.00 0.00 0.00 49 1015.7
20260504183619 78 292 3.0 11.0 0.00 0.00 0.00 48 1015.7
20260504183343 77 98 4.0 11.0 0.00 0.00 0.00 49 1015.8
20260504182617 77 48 4.0 8.0 0.00 0.00 0.00 49 1015.8
20260504182117 77 48 4.0 8.0 0.00 0.00 0.00 50 1015.8
20260504181616 77 49 3.0 7.0 0.00 0.00 0.00 49 1015.9
20260504181115 77 124 3.0 7.0 0.00 0.00 0.00 48 1016.0
20260504180613 77 48 4.0 9.0 0.00 0.00 0.00 47 1016.1
20260504180329 76 47 4.0 9.0 0.00 0.00 0.00 50 1016.3
20260504175611 77 7 4.0 8.0 0.00 0.00 0.00 49 1016.3
20260504175108 76 42 4.0 9.0 0.00 0.00 0.00 49 1016.2
20260504174830 76 42 4.0 9.0 0.00 0.00 0.00 50 1016.2
20260504174109 76 43 4.0 9.0 0.00 0.00 0.00 52 1016.3
20260504173607 76 43 4.0 10.0 0.00 0.00 0.00 50 1016.3
20260504173326 76 43 4.0 10.0 0.00 0.00 0.00 49 1016.5
20260504172609 76 43 4.0 9.0 0.00 0.00 0.00 49 1016.5
20260504172108 76 247 4.0 9.0 0.00 0.00 0.00 49 1016.5
20260504171609 76 306 4.0 10.0 0.00 0.00 0.00 48 1016.7
20260504171327 76 40 4.0 10.0 0.00 0.00 0.00 50 1016.7
20260504170609 76 262 4.0 9.0 0.00 0.00 0.00 49 1016.6
20260504170108 76 317 4.0 9.0 0.00 0.00 0.00 51 1016.7
20260504160105 74 273 5.0 12.0 0.00 0.00 0.00 50 1017.3
20260504151102 74 45 3.0 7.0 0.00 0.00 0.00 57 1017.5
20260504150557 73 45 3.0 7.0 0.00 0.00 0.00 57 1017.5
20260504140951 70 45 1.0 3.0 0.00 0.00 0.00 73 1017.3
20260504140703 70 45 1.0 3.0 0.00 0.00 0.00 73 1017.5
20260504130332 65 45 0.0 0.0 0.00 0.00 0.00 85 1017.4
20260504120221 53 45 0.0 0.0 0.00 0.00 0.00 98 1017.0
20260504110614 54 45 0.0 1.0 0.00 0.00 0.00 98 1016.5
20260504110109 53 45 0.0 0.0 0.00 0.00 0.00 97 1016.4
20260504100504 55 45 0.0 0.0 0.00 0.00 0.00 95 1016.5
20260504081914 57 45 0.0 1.0 0.00 0.00 0.00 89 1016.9
20260504081414 57 45 0.0 0.0 0.00 0.00 0.00 90 1016.9
20260504080911 57 45 0.0 0.0 0.00 0.00 0.00 90 1017.0
20260504080411 57 45 0.0 0.0 0.00 0.00 0.00 90 1016.8
20260504070406 60 45 0.0 1.0 0.00 0.00 0.00 84 1017.2
20260504050716 62 45 0.0 1.0 0.00 0.00 0.00 82 1018.1
20260504050210 62 45 0.0 1.0 0.00 0.00 0.00 82 1018.0
20260504045704 62 45 0.0 1.0 0.00 0.00 0.00 80 1018.1
20260504045200 62 45 0.0 1.0 0.00 0.00 0.00 80 1018.1
20260504044702 63 45 0.0 2.0 0.00 0.00 0.00 79 1018.2
20260504044200 63 45 0.0 2.0 0.00 0.00 0.00 79 1018.2
20260504043659 63 45 0.0 1.0 0.00 0.00 0.00 78 1018.2
20260504043200 63 45 0.0 1.0 0.00 0.00 0.00 78 1018.2
20260504042658 63 45 0.0 2.0 0.00 0.00 0.00 77 1018.3
20260504042158 64 45 1.0 3.0 0.00 0.00 0.00 77 1018.3
20260504041923 64 45 1.0 3.0 0.00 0.00 0.00 77 1018.2
20260504041201 64 45 1.0 2.0 0.00 0.00 0.00 76 1018.2
20260504040658 64 45 0.0 3.0 0.00 0.00 0.00 76 1018.2
20260504040522 64 45 1.0 4.0 0.00 0.00 0.00 75 1018.2
20260504040429 64 45 1.0 4.0 0.00 0.00 0.00 75 1018.2
20260504035157 64 45 0.0 2.0 0.00 0.00 0.00 75 1018.4
20260504034654 63 45 0.0 2.0 0.00 0.00 0.00 78 1018.5
20260504034155 63 45 0.0 1.0 0.00 0.00 0.00 79 1018.6
20260504033910 62 45 0.0 1.0 0.00 0.00 0.00 81 1018.6
20260504033148 62 45 0.0 1.0 0.00 0.00 0.00 83 1018.7
20260504032648 62 45 0.0 0.0 0.00 0.00 0.00 83 1018.5
20260504032148 62 45 0.0 0.0 0.00 0.00 0.00 82 1018.4
20260504031649 62 45 0.0 0.0 0.00 0.00 0.00 82 1018.5
20260504031148 63 45 0.0 0.0 0.00 0.00 0.00 79 1018.4
20260504030649 63 45 0.0 0.0 0.00 0.00 0.00 79 1018.5
20260504030151 63 45 0.0 0.0 0.00 0.00 0.00 79 1018.5
20260504025649 64 45 0.0 0.0 0.00 0.00 0.00 81 1018.4
20260504025150 64 45 0.0 0.0 0.00 0.00 0.00 81 1018.4
20260504024645 64 45 0.0 0.0 0.00 0.00 0.00 80 1018.4
20260504024145 64 45 0.0 0.0 0.00 0.00 0.00 79 1018.3
20260504023645 64 45 0.0 0.0 0.00 0.00 0.00 79 1018.3
20260504023144 64 45 0.0 0.0 0.00 0.00 0.00 78 1018.3
20260504022644 65 45 0.0 0.0 0.00 0.00 0.00 80 1018.2
20260504022144 65 45 0.0 0.0 0.00 0.00 0.00 78 1018.1
20260504021645 65 45 0.0 0.0 0.00 0.00 0.00 79 1018.2
20260504021145 65 45 0.0 0.0 0.00 0.00 0.00 78 1018.1
20260504020646 66 45 0.0 0.0 0.00 0.00 0.00 76 1018.0
20260504020413 66 45 0.0 0.0 0.00 0.00 0.00 75 1017.9
20260504015647 66 45 0.0 0.0 0.00 0.00 0.00 74 1017.8
20260504015147 66 45 0.0 0.0 0.00 0.00 0.00 75 1017.8
20260504014644 66 45 0.0 0.0 0.00 0.00 0.00 76 1017.8
20260504014143 67 45 0.0 0.0 0.00 0.00 0.00 77 1017.6
20260504013643 67 45 0.0 0.0 0.00 0.00 0.00 77 1017.6
20260504013142 67 45 0.0 0.0 0.00 0.00 0.00 76 1017.6
20260504012642 67 45 0.0 0.0 0.00 0.00 0.00 74 1017.6
20260504012631 67 45 0.0 0.0 0.00 0.00 0.00 73 1017.5
20260504011644 67 45 0.0 0.0 0.00 0.00 0.00 69 1017.5
20260504011140 68 45 0.0 0.0 0.00 0.00 0.00 68 1017.5
20260504010644 69 45 0.0 0.0 0.00 0.00 0.00 67 1017.4
20260504010138 69 45 0.0 0.0 0.00 0.00 0.00 67 1017.5
20260504005630 70 45 0.0 0.0 0.00 0.00 0.00 65 1017.4
20260504005128 70 45 0.0 0.0 0.00 0.00 0.00 62 1017.4
20260504004627 71 45 0.0 0.0 0.00 0.00 0.00 60 1017.4
20260504004127 71 45 0.0 0.0 0.00 0.00 0.00 57 1017.4